Wind_Speed
18 20 21 22 22 22 24 25 25 25 26 25 22 23 21 13 8 11 11 10 10 11 10 11 11 9 8 5 5 5 4 5 5 5 5 5 6 6 6 7 6 7 7 7 8 8 8 8 7 7 6 6 6 6 6 6 5 4 3 3 4 4 4 6 5 5 6 7 7 7 8 7 6 5 5 6 7 7 6 6 5 5 5 6 5
17 17 20 22 24 26 27 27 26 25 24 23 22 24 23 16 13 13 13 11 10 11 10 10 9 9 8 6 5 4 4 4 4 5 5 6 6 6 6 6 6 6 7 7 8 8 9 9 8 8 7 7 6 6 6 6 5 4 4 4 4 4 4 6 6 5 5 6 5 6 7 6 5 5 5 7 7 6 6 6 5 4 5 6 5
20 18 19 22 26 30 31 29 27 26 25 24 23 23 24 22 19 15 13 12 12 13 13 14 10 8 7 7 6 5 4 4 4 5 5 6 6 6 6 6 6 6 6 7 7 8 9 9 9 8 8 8 7 7 7 6 6 6 5 4 4 4 4 5 6 5 5 5 6 6 7 6 6 5 5 6 5 5 7 6 4 3 5 6 4
26 23 22 24 28 31 30 28 28 27 23 23 24 24 25 23 19 14 12 11 12 13 13 17 12 10 9 8 6 6 5 5 5 5 5 6 6 6 6 6 5 5 6 7 7 8 9 9 9 8 8 7 7 6 6 7 7 7 6 5 5 5 5 5 5 5 5 5 6 6 7 7 7 6 7 7 5 5 6 5 4 4 6 6 3
30 28 25 25 28 30 29 26 26 26 23 22 24 24 23 19 13 11 10 11 13 13 13 17 15 14 12 9 7 7 6 6 6 6 6 6 6 6 6 6 6 6 7 7 7 8 8 8 8 7 7 6 6 6 6 6 7 7 7 6 6 6 6 5 6 6 6 5 5 5 7 7 8 8 8 7 6 7 7 6 6 6 6 5 4
31 30 28 27 28 29 30 28 26 26 24 20 18 17 16 14 12 12 12 12 13 13 13 15 14 14 13 10 9 8 7 7 7 7 7 7 7 7 6 7 7 7 8 8 8 8 8 7 7 7 6 6 6 6 6 6 7 8 8 7 6 6 6 6 6 6 6 5 5 5 7 8 8 8 9 8 8 8 8 8 7 7 6 6 6
31 30 29 27 25 26 29 30 29 28 25 23 24 23 19 16 15 15 13 11 11 11 11 12 12 12 12 11 10 9 8 8 8 8 7 7 8 8 8 8 8 9 9 9 9 9 9 8 7 6 6 5 5 6 6 6 7 8 8 8 7 6 6 6 6 7 7 7 6 5 7 9 9 9 9 9 9 9 9 9 8 8 7 7 7
32 31 28 26 27 29 31 29 27 28 28 29 29 25 18 15 15 14 12 11 10 8 9 10 11 11 12 10 9 9 9 10 10 9 8 8 9 9 9 9 10 10 11 11 11 11 10 9 8 7 6 5 5 5 5 6 7 8 9 8 8 7 6 6 6 6 7 8 8 7 7 8 9 9 10 10 11 10 10 9 9 8 8 8 9
33 31 30 31 33 32 30 27 25 27 29 27 22 19 17 15 12 13 13 12 11 8 8 8 9 10 10 9 7 6 6 7 9 10 10 9 10 10 11 11 11 11 11 11 11 12 11 10 9 8 7 7 6 6 6 6 7 8 9 9 9 8 7 7 6 6 7 8 8 8 8 9 10 10 11 12 12 11 10 10 10 9 9 9 11
32 31 32 34 33 29 27 26 25 26 27 22 17 17 18 15 14 15 14 12 10 9 7 6 7 9 9 8 7 5 4 5 8 10 11 11 11 11 11 11 11 11 10 10 10 11 11 11 10 10 10 9 9 9 8 8 8 8 9 10 10 9 9 8 7 6 7 8 8 8 9 10 11 12 13 13 12 12 11 11 10 10 10 11 12
30 31 32 32 31 30 28 27 26 26 27 24 19 17 16 15 16 16 14 12 11 10 9 7 8 9 9 9 9 7 5 5 7 9 11 12 11 11 11 11 11 10 10 9 9 10 10 10 10 10 11 12 12 11 10 10 10 10 11 11 11 11 10 9 8 7 7 7 8 8 9 10 11 12 13 13 13 12 12 12 12 12 12 12 13
30 29 29 30 30 29 28 26 25 25 26 24 20 16 12 9 8 9 11 13 12 11 9 8 9 10 11 12 11 9 6 5 6 7 10 11 11 11 11 11 11 11 11 11 10 10 11 11 11 12 13 14 15 14 13 13 13 13 13 13 13 12 11 10 10 9 8 8 7 8 9 10 11 11 11 12 13 13 13 13 13 13 13 14 15
27 26 28 29 27 24 23 22 22 21 19 16 12 8 4 2 2 3 8 13 14 12 10 8 8 9 11 13 13 11 7 7 7 7 9 11 11 11 11 10 11 12 13 13 13 12 13 14 15 15 16 17 17 17 16 16 16 16 15 15 14 14 12 12 11 11 10 9 8 9 10 10 11 11 11 12 13 13 13 13 13 13 14 16 16
28 29 31 29 24 21 21 20 18 18 16 12 9 6 5 7 9 7 8 12 14 11 10 9 8 8 11 14 14 11 10 10 10 10 10 12 12 12 11 11 12 13 14 15 15 14 15 16 17 19 20 20 19 19 18 18 17 17 17 16 15 14 14 13 13 12 11 10 10 10 11 10 10 10 11 12 13 12 13 13 13 14 16 16 16
31 31 29 26 22 21 20 17 15 15 14 12 10 8 7 8 8 9 10 12 12 11 10 9 8 8 10 13 14 14 13 13 12 12 13 14 14 13 13 13 13 14 14 14 15 15 15 16 17 18 20 20 19 19 18 18 17 17 16 15 14 13 13 13 13 12 12 11 11 10 10 10 10 10 11 12 12 12 12 13 14 15 16 15 14
26 25 22 20 19 18 16 14 12 12 11 10 9 8 5 2 5 10 12 12 11 11 11 9 7 7 8 11 14 15 14 14 14 14 15 16 16 15 14 14 15 15 14 14 14 14 14 14 14 15 16 17 17 17 17 16 16 15 13 11 10 11 12 12 12 12 12 11 10 9 9 10 10 10 11 11 11 12 12 13 14 15 14 13 12
17 17 16 16 16 15 13 11 9 9 10 9 6 5 4 4 5 9 11 12 11 10 9 8 7 8 9 10 13 15 16 15 15 15 16 17 17 16 16 16 17 17 15 14 14 14 14 14 13 13 14 14 15 15 15 14 14 13 11 10 10 10 11 12 13 13 13 11 11 10 10 10 10 10 10 11 11 11 11 13 14 14 12 11 11
14 15 15 15 15 14 13 11 10 10 11 9 8 7 7 7 7 8 8 8 8 7 7 8 9 10 11 13 14 16 18 18 17 16 17 17 17 17 17 18 18 18 17 16 15 15 15 15 14 14 14 14 14 13 13 13 13 13 12 11 12 12 12 12 13 13 13 13 12 11 11 10 10 10 10 10 9 10 11 11 12 12 11 11 11
18 17 16 16 16 14 13 13 13 12 12 11 10 9 8 9 9 8 7 7 6 7 8 10 11 13 15 16 17 17 18 19 19 19 19 18 17 16 18 18 18 19 19 18 17 16 16 16 15 15 14 14 13 13 12 13 13 14 14 14 14 13 13 13 14 14 14 14 13 12 11 11 11 10 10 10 10 10 11 11 12 12 12 12 12
22 22 21 20 19 17 15 14 13 13 12 12 12 11 8 8 9 8 7 7 9 10 12 14 16 17 18 19 19 19 18 19 21 22 22 21 19 17 17 19 19 18 18 17 17 17 17 17 16 16 16 15 14 13 13 13 14 14 15 15 15 15 15 15 15 15 14 14 13 13 12 11 11 11 11 11 11 12 12 12 12 12 12 12 12
22 23 23 23 22 21 18 15 13 13 12 12 14 14 12 10 10 9 9 10 12 13 15 17 19 19 20 20 20 20 20 21 22 24 24 22 20 18 17 19 21 20 18 16 16 17 18 18 18 17 16 16 15 14 14 15 15 15 16 16 16 16 16 16 16 15 14 14 13 13 12 11 11 11 11 12 12 12 11 10 10 10 11 11 11
21 22 23 24 24 23 21 17 15 15 15 16 17 17 17 15 13 13 13 13 14 15 16 16 17 18 20 21 21 21 20 19 19 20 22 20 18 17 16 18 22 23 20 18 16 16 17 18 18 17 16 16 16 15 15 15 15 15 16 16 15 16 16 16 15 14 14 14 13 13 13 12 12 13 12 12 12 10 9 8 8 8 9 10 10
20 21 22 22 21 21 21 19 18 18 18 19 19 19 18 17 17 16 15 15 15 16 17 17 17 19 21 22 23 23 21 18 16 15 17 17 16 16 17 19 22 24 23 20 17 16 16 16 17 17 17 16 16 16 16 15 15 15 15 15 15 15 14 14 14 14 14 13 13 13 13 13 13 12 12 11 10 8 7 7 8 8 9 10 11
19 20 20 21 19 19 19 19 20 22 22 22 21 19 17 17 17 17 15 15 16 17 18 17 16 18 20 21 23 26 24 20 17 15 15 15 15 16 18 20 22 23 22 20 17 16 16 16 17 17 17 16 16 17 17 16 16 15 15 15 15 14 14 14 14 13 13 12 12 12 12 12 11 11 10 9 8 7 7 8 9 10 11 11 12
22 21 20 21 21 20 19 20 21 23 23 20 17 15 14 15 16 15 15 15 15 16 17 18 17 18 18 18 20 23 23 23 23 19 16 15 16 17 18 19 21 22 22 20 18 17 17 18 18 17 16 16 16 16 16 16 16 15 16 15 15 15 15 15 14 13 12 11 11 10 10 9 8 8 8 8 9 9 10 11 11 12 12 13 14
23 22 21 21 22 21 21 21 22 23 21 17 16 16 16 16 15 14 14 15 15 15 17 18 19 20 20 17 17 19 21 26 27 22 16 14 15 16 17 18 20 22 22 20 19 19 19 19 18 17 16 15 15 15 16 16 16 16 16 16 16 17 17 16 15 13 12 11 10 10 10 9 9 10 11 11 12 13 14 15 16 17 18 18 18
17 17 17 19 20 19 19 20 22 23 21 18 16 15 14 13 13 13 13 14 15 16 17 17 18 20 21 19 18 18 19 23 25 21 16 14 14 15 15 16 19 22 23 23 22 20 19 19 19 18 17 16 15 15 16 16 16 16 17 17 17 17 17 16 15 13 11 11 11 12 12 12 13 14 15 15 16 17 18 19 20 21 21 20 20
14 13 13 15 17 15 14 16 17 16 14 13 13 11 11 11 12 12 13 14 15 16 17 17 17 18 20 20 19 17 16 18 20 20 18 17 16 17 16 17 19 22 23 23 22 20 19 19 19 19 18 18 17 16 16 17 17 17 17 17 17 17 17 17 15 14 13 13 14 15 15 15 16 16 17 19 19 19 19 19 20 21 21 22 23
16 14 12 13 15 14 13 13 13 12 10 11 11 11 12 13 15 14 14 14 16 16 16 15 14 15 17 17 16 15 15 16 18 19 18 17 18 19 20 21 21 22 22 23 21 20 19 19 19 19 18 18 17 17 17 17 17 17 17 17 18 18 18 18 17 17 17 17 18 19 19 19 20 20 21 22 23 23 22 21 21 22 24 26 28
17 16 15 14 14 15 16 16 17 17 16 17 17 17 17 17 18 17 15 14 14 14 14 14 13 13 14 14 14 16 17 17 17 17 17 17 17 17 20 22 23 21 21 23 22 21 20 20 19 19 18 18 18 18 18 18 19 19 19 19 20 19 19 19 19 19 19 20 21 22 23 23 24 24 25 25 26 26 25 24 24 25 27 28 29
18 17 16 16 16 17 18 19 20 21 21 22 23 23 21 20 18 17 16 15 14 15 15 14 15 15 15 15 14 15 15 16 16 16 16 16 15 16 17 19 22 23 22 23 23 22 21 21 21 21 20 20 20 21 21 21 21 22 22 22 22 22 21 21 21 21 21 22 23 23 24 25 26 27 28 28 29 29 28 27 27 27 28 28 28
16 16 16 17 18 19 20 21 22 22 23 23 23 23 22 21 20 18 17 16 16 16 16 17 17 17 17 15 14 13 14 14 15 15 15 15 15 17 18 18 21 23 22 22 23 23 22 22 23 22 22 21 21 21 22 23 24 24 24 24 24 24 24 23 23 23 24 24 25 25 26 27 28 29 29 30 30 30 30 30 29 28 28 29 29
15 15 16 18 20 20 20 21 22 23 23 23 23 22 21 20 19 18 17 17 17 17 17 18 18 19 19 19 19 19 19 18 17 16 17 18 18 19 20 19 19 20 22 22 22 23 23 24 24 24 23 23 22 22 23 24 25 25 25 25 25 25 25 25 25 26 26 27 28 28 29 30 31 30 30 30 31 31 32 32 32 32 31 32 33
20 19 18 18 18 18 18 19 20 21 22 22 22 22 22 21 20 19 18 17 18 18 19 20 20 20 21 21 22 23 23 23 22 21 21 22 21 20 21 21 19 20 22 23 22 23 24 24 24 25 25 25 25 25 25 26 26 27 27 27 27 27 27 27 27 28 29 30 32 33 33 32 32 31 31 31 32 33 34 35 35 35 36 37 38
26 24 21 18 17 15 14 15 16 17 18 20 20 21 21 21 21 20 20 19 20 20 21 22 22 22 22 22 23 23 23 24 24 25 25 25 24 22 23 24 22 21 22 22 22 24 26 26 27 27 27 28 29 29 29 29 30 30 31 31 31 30 30 30 30 30 31 33 33 33 32 32 32 33 34 35 36 37 39 39 40 40 40 41 43
22 22 21 20 20 19 19 18 17 16 16 18 19 21 22 23 23 23 23 23 23 23 23 23 24 24 24 24 24 25 25 25 25 25 26 27 27 27 28 29 27 26 27 27 28 29 29 30 31 31 31 32 33 33 33 33 33 34 35 35 35 34 33 33 33 33 34 33 32 32 33 35 36 37 37 39 42 43 44 44 44 44 45 46 48
23 24 23 23 24 26 27 28 26 25 25 24 23 24 25 26 28 28 29 29 28 27 26 26 26 26 26 26 27 27 28 28 28 28 29 29 30 31 32 33 34 35 35 36 34 33 33 34 35 36 36 36 37 37 37 37 37 38 39 39 39 38 37 37 36 37 38 37 37 38 39 39 39 40 41 43 46 47 48 47 46 46 47 49 50
28 29 29 28 28 29 31 32 33 34 34 33 31 30 29 29 29 29 30 30 30 30 30 30 30 30 30 30 30 31 31 32 33 33 33 33 33 34 35 36 37 38 39 39 38 37 38 38 39 40 40 40 40 40 40 40 41 41 42 42 42 42 41 41 40 41 43 43 42 42 42 42 42 43 45 47 49 49 49 48 47 48 49 50 50
31 32 32 31 30 30 31 33 34 35 36 36 36 36 36 35 34 32 31 31 32 32 32 33 33 34 34 35 35 35 35 36 36 36 37 37 36 36 37 37 38 39 40 41 41 41 41 41 42 43 44 44 45 45 44 44 45 45 46 45 45 45 46 45 44 44 45 45 44 43 43 44 46 47 48 50 50 50 49 49 49 49 49 50 51
31 33 33 31 31 31 32 33 35 36 36 37 37 37 39 39 39 38 37 36 36 35 35 35 35 35 35 36 37 38 39 39 40 40 40 41 41 40 40 40 40 41 42 42 43 43 44 44 45 46 47 48 49 50 50 50 50 51 51 51 51 50 50 50 49 47 46 46 46 47 47 49 51 51 51 51 52 52 51 50 50 49 48 49 51
30 32 33 34 35 35 35 35 36 37 38 38 38 38 39 40 40 40 40 39 38 37 35 34 33 32 33 34 36 37 38 40 41 42 42 43 44 44 44 45 45 45 45 45 46 47 47 48 48 49 50 51 52 52 53 53 53 54 54 54 55 55 54 53 52 51 49 49 50 51 53 55 57 56 55 54 54 54 53 52 51 50 49 50 51
32 33 34 37 39 40 40 40 39 40 40 40 40 40 41 41 40 40 39 39 38 37 36 35 35 34 34 35 36 37 38 38 39 39 40 41 42 43 44 45 46 47 48 48 48 49 49 50 50 51 52 52 53 54 54 54 54 54 54 54 55 56 56 55 55 55 54 54 55 57 58 60 61 61 58 56 55 54 53 52 51 51 51 50 49
32 32 33 33 35 37 38 38 38 38 39 40 41 41 41 42 42 41 41 41 41 41 41 42 42 42 41 41 41 42 42 42 42 42 43 44 45 45 46 46 47 48 49 50 50 51 51 51 51 51 52 52 52 52 53 54 54 54 55 56 56 57 59 60 60 60 60 61 62 63 62 62 62 60 57 56 54 52 51 49 49 50 51 49 46
32 32 31 31 31 32 33 33 33 34 35 36 37 39 40 41 41 42 43 44 45 45 44 44 44 45 44 43 42 43 43 43 44 45 46 47 48 49 50 51 52 52 52 53 53 54 55 55 55 55 56 56 56 56 57 58 59 60 61 62 62 62 63 64 64 64 65 65 65 63 60 60 59 56 54 53 51 49 48 47 45 46 47 46 44
34 33 33 32 32 31 32 32 32 33 34 34 35 36 37 38 39 40 42 42 43 43 43 43 43 43 43 43 43 42 43 43 44 45 46 47 49 50 51 52 53 53 54 54 55 56 57 57 58 58 59 59 60 61 62 63 64 65 66 66 66 65 65 66 67 66 66 66 63 60 58 58 57 55 53 52 50 48 48 47 46 46 47 48 47
34 34 34 33 33 33 33 34 34 34 35 35 36 37 38 39 39 40 40 41 41 41 42 43 43 44 44 44 44 44 44 45 46 47 48 49 50 51 51 52 53 54 55 56 57 57 58 59 59 60 60 61 62 63 63 65 66 67 67 68 68 67 67 67 66 66 65 64 62 61 58 56 55 55 55 55 53 51 50 50 51 52 53 53 53
35 35 35 34 34 34 34 35 35 36 36 37 38 39 40 40 41 42 42 43 43 44 44 45 45 46 46 46 47 47 47 48 49 50 51 52 53 54 55 56 57 58 58 59 60 60 61 62 62 63 63 63 64 65 65 67 68 68 68 69 69 69 68 68 67 67 66 64 61 59 57 56 56 56 56 54 52 51 50 50 51 53 54 54 54
37 37 37 37 37 36 37 38 38 39 39 40 40 41 42 42 43 44 45 45 46 46 46 47 47 48 49 49 50 51 52 53 54 55 55 56 57 57 58 59 59 60 61 61 62 62 63 64 65 65 65 65 66 67 68 69 70 70 70 71 70 70 70 69 67 67 66 62 58 54 52 53 53 50 48 47 46 46 47 48 48 49 50 49 48
39 39 40 40 40 40 41 41 42 43 43 44 44 45 45 46 46 47 47 47 48 48 49 49 50 51 52 53 54 55 56 57 57 57 58 58 59 59 60 60 61 62 62 63 63 64 65 66 66 67 67 67 67 68 69 70 71 71 71 71 70 69 69 67 66 65 64 61 57 53 49 51 52 50 47 47 46 46 46 47 46 46 44 43 44
40 41 41 42 43 44 44 45 46 46 47 47 48 48 49 49 49 50 50 50 51 52 52 53 53 54 55 56 57 58 59 59 59 59 60 60 61 62 62 62 63 64 64 65 65 65 65 65 66 66 66 66 65 65 66 67 68 68 67 67 66 65 65 64 64 63 62 59 57 52 49 51 55 55 52 50 48 46 44 44 43 43 43 43 45
44 44 44 45 46 46 46 47 48 48 49 49 50 51 51 51 52 52 52 53 53 54 55 56 56 57 58 59 60 60 61 61 61 61 61 62 63 63 64 65 65 65 64 64 64 64 64 63 63 63 63 63 62 62 62 62 63 63 62 62 61 61 61 62 61 61 60 58 55 51 47 48 52 53 49 46 45 42 42 42 42 42 44 45 46
Wind_Direction
268 259 254 253 253 255 256 256 258 259 263 266 273 273 254 239 266 269 274 284 281 289 270 240 247 237 213 213 221 227 227 224 236 243 247 260 267 269 264 261 262 262 265 268 271 274 276 277 275 272 267 263 258 254 255 262 269 278 279 270 264 264 262 258 247 230 236 242 235 228 228 229 226 218 213 220 228 229 227 229 232 249 261 246 234
282 271 257 253 254 255 255 255 256 258 265 272 274 267 252 252 275 269 269 279 270 271 253 220 236 244 220 214 223 229 235 234 240 247 254 262 263 262 262 260 255 254 261 268 274 276 279 281 280 278 275 269 260 252 248 248 254 258 256 254 255 255 256 262 259 235 229 240 235 225 225 223 213 210 222 228 231 228 226 233 238 255 264 241 228
285 268 250 250 253 253 255 256 260 267 271 270 267 257 248 258 274 270 267 273 269 268 243 210 222 255 233 215 227 236 242 246 251 260 265 263 260 261 264 261 250 245 249 257 264 268 275 280 281 281 277 270 260 251 245 241 243 246 243 240 240 243 246 257 262 245 232 236 228 227 237 237 225 210 212 226 235 221 216 230 241 259 257 235 227
278 267 251 246 250 258 265 266 269 276 273 265 262 255 252 262 270 265 264 270 271 274 244 219 236 266 246 225 232 235 239 250 258 265 265 262 264 266 267 260 245 239 240 246 255 260 267 274 277 277 273 266 257 247 240 237 242 246 246 243 240 245 248 249 255 251 243 234 222 227 237 239 237 223 213 223 230 207 207 232 247 256 253 238 236
273 269 257 251 259 272 283 284 281 282 278 271 265 257 256 263 269 266 273 281 282 279 248 233 252 269 251 232 228 230 236 245 252 258 260 266 272 274 272 262 252 249 249 252 257 259 260 261 265 267 262 258 252 246 239 235 238 244 247 248 248 251 255 255 256 256 253 242 226 224 228 233 240 237 230 227 222 213 218 239 248 250 249 243 248
269 270 264 265 274 283 289 293 293 290 285 276 264 259 259 260 268 277 279 284 286 276 250 242 259 261 240 224 221 224 230 236 243 249 255 266 273 278 274 263 258 256 256 257 258 259 256 253 253 254 252 249 247 245 239 233 234 239 243 246 250 254 259 263 266 266 263 255 239 220 216 227 239 243 243 238 229 228 230 238 249 255 252 244 244
268 271 270 271 278 283 285 287 289 288 288 285 274 269 268 262 266 276 274 270 272 263 248 252 263 251 230 219 218 223 230 234 237 240 247 261 271 278 275 266 261 259 259 260 259 257 251 244 240 242 245 245 245 246 241 235 232 236 240 242 244 250 257 265 269 273 275 274 266 244 223 225 236 244 247 246 242 242 240 240 250 258 256 247 238
269 271 271 273 278 283 285 286 287 285 290 294 280 266 273 276 264 260 258 252 254 249 240 250 260 246 230 223 227 236 240 236 233 233 241 255 266 273 271 264 260 259 261 260 257 253 245 237 232 232 239 245 246 247 245 241 236 235 239 240 240 243 248 257 265 272 278 281 279 272 254 239 240 245 247 248 249 250 248 246 248 248 245 242 240
271 272 272 278 284 288 288 288 291 289 292 295 279 266 281 288 268 255 250 244 243 235 226 236 242 235 229 227 228 231 230 229 230 234 242 252 261 268 268 264 261 260 260 257 252 247 243 238 231 230 237 245 247 245 244 245 242 239 239 239 241 242 244 250 256 264 271 276 278 277 271 262 256 253 252 252 254 256 255 253 250 245 241 241 244
272 276 278 283 290 291 288 288 292 292 291 286 278 280 284 281 276 266 250 240 233 219 211 215 220 221 220 213 200 186 196 227 240 243 245 246 250 257 262 262 264 265 262 255 247 242 241 241 237 233 236 243 247 248 248 250 251 250 246 244 242 242 245 248 252 257 262 268 272 273 269 265 262 259 259 259 260 261 258 254 251 248 246 244 244
276 283 285 288 293 292 289 289 289 289 285 277 277 287 287 284 282 264 243 235 223 205 197 200 207 208 204 198 189 183 204 236 246 248 245 242 242 245 250 254 257 258 254 248 243 240 243 246 246 241 239 244 247 248 251 252 252 252 249 247 244 244 246 248 249 250 254 260 266 269 265 261 260 260 262 264 264 260 256 253 251 249 247 246 246
279 284 287 290 293 291 287 288 289 288 282 273 272 281 286 294 283 243 230 225 207 186 176 185 200 201 196 196 193 192 214 241 247 249 247 245 245 244 246 249 248 242 237 236 236 238 244 247 249 247 245 247 249 250 250 249 248 248 246 244 243 245 248 249 249 247 248 252 256 260 258 258 261 264 266 268 266 261 256 253 252 251 249 247 248
277 281 284 288 289 286 283 284 287 289 283 270 263 262 257 312 317 245 222 204 185 169 162 170 183 188 192 195 192 195 219 240 239 243 249 251 251 249 248 247 241 233 230 234 237 239 243 245 245 246 246 247 248 249 249 248 247 246 244 240 239 242 245 246 245 242 242 244 243 246 249 252 260 266 268 267 265 263 260 256 254 252 248 246 248
276 279 280 282 284 282 280 283 284 284 282 271 252 229 242 280 284 270 226 193 178 169 167 173 177 177 184 189 193 203 221 232 234 238 245 250 251 248 247 243 233 227 228 234 240 242 245 247 248 247 246 247 248 249 249 249 248 245 243 241 242 243 242 240 239 238 238 237 236 240 246 252 258 263 265 263 264 264 260 255 252 249 246 247 249
273 273 272 275 280 279 278 285 287 282 275 263 247 242 263 279 265 244 221 195 180 175 175 178 186 190 191 196 205 214 220 227 235 240 241 245 247 244 242 240 232 227 228 232 240 244 248 252 253 252 249 247 246 246 247 248 247 245 244 243 244 245 242 238 238 236 236 236 236 238 245 251 255 258 260 261 264 261 254 250 249 247 248 251 253
269 270 268 270 275 276 276 280 282 275 264 258 257 254 254 245 225 224 219 206 191 185 184 184 193 205 212 214 215 217 221 229 238 243 244 246 246 241 238 238 236 233 231 232 238 244 248 252 255 254 249 244 243 243 243 243 242 240 238 235 236 239 240 241 242 242 242 241 239 238 241 245 250 253 255 257 258 255 251 250 250 250 253 254 254
266 270 269 272 276 276 272 266 260 257 253 252 254 230 174 156 205 219 219 215 204 197 194 192 200 210 220 225 223 222 225 231 239 242 244 247 248 242 236 237 239 239 238 239 241 245 248 251 255 253 247 242 241 240 237 236 235 231 226 225 228 234 239 244 248 249 248 245 241 239 238 240 242 245 248 250 251 251 251 250 250 252 253 251 250
261 267 269 274 276 274 265 249 235 234 236 236 232 217 190 179 200 215 222 221 211 204 202 205 216 227 233 232 229 227 228 231 235 235 236 242 246 243 236 235 240 243 245 246 246 249 252 254 257 256 251 245 240 237 232 227 225 222 219 220 225 230 235 240 243 245 244 242 239 238 238 238 238 239 241 244 245 246 247 249 251 253 253 250 247
249 255 261 266 267 265 258 244 231 226 230 235 229 219 205 192 191 197 210 223 229 226 219 219 230 240 243 241 236 233 232 234 234 232 234 241 247 244 235 233 239 243 245 248 248 251 256 258 260 260 257 252 246 241 235 229 224 219 216 215 217 221 225 230 234 236 237 237 236 235 234 233 232 232 232 235 237 238 239 241 246 248 249 249 247
245 249 254 258 257 255 252 244 232 224 229 235 223 208 197 189 192 201 216 228 234 236 232 231 236 240 241 241 239 235 236 238 237 235 239 246 252 250 238 231 235 239 241 244 247 249 254 259 261 263 262 259 254 250 245 240 235 228 222 218 217 218 220 223 228 231 233 234 233 232 230 228 227 226 227 228 230 231 232 234 237 241 244 246 248
245 248 252 254 254 253 252 247 234 221 220 224 220 217 220 219 220 230 240 240 236 237 237 239 243 244 241 241 239 238 244 247 244 242 244 249 255 256 246 235 232 234 239 245 250 252 254 258 261 262 263 262 260 258 255 251 246 241 236 230 226 226 224 224 225 226 228 228 228 227 225 224 224 224 226 228 229 230 232 234 236 241 245 248 252
245 247 249 252 253 251 250 248 239 227 220 221 224 228 231 232 233 238 242 241 240 242 243 248 251 245 240 243 243 244 250 251 248 247 249 252 255 253 249 243 236 234 238 246 253 256 256 257 259 260 262 262 263 263 262 260 257 253 249 245 241 239 236 232 229 226 225 226 227 227 225 225 225 226 228 231 233 234 238 243 247 252 255 256 257
244 244 245 248 249 244 242 245 247 242 231 226 229 232 232 234 238 241 242 241 240 240 243 249 252 243 238 241 241 239 241 242 242 246 250 253 254 249 246 246 241 237 238 243 247 249 250 251 252 255 259 260 262 264 265 264 263 261 259 257 255 252 249 245 240 236 235 235 237 237 237 237 237 237 238 241 245 249 252 256 258 260 262 261 261
240 241 242 243 243 238 238 244 251 247 240 238 237 233 233 239 244 248 250 245 240 238 240 245 249 246 241 240 241 237 235 238 242 245 252 256 256 254 248 245 242 237 235 236 237 237 239 242 246 251 255 258 261 263 264 264 264 264 265 264 262 259 256 253 250 248 247 249 253 255 257 256 253 251 252 255 261 267 270 272 272 271 272 273 274
245 244 242 241 240 237 239 243 244 244 243 243 239 237 244 250 253 255 250 241 239 239 242 246 247 246 245 247 250 246 244 248 248 245 253 261 259 259 255 246 241 237 233 232 231 231 234 238 243 247 251 255 260 262 264 265 266 267 268 268 266 263 261 258 256 255 257 261 266 269 268 264 263 267 273 277 280 281 284 286 289 291 292 293 294
255 253 250 245 239 236 235 235 238 244 248 246 241 248 257 255 254 252 242 236 240 242 244 247 245 242 243 245 248 248 248 250 247 244 254 263 260 262 258 248 241 238 236 235 231 230 232 235 240 243 245 250 256 261 264 266 267 268 269 269 268 267 265 262 262 264 266 266 266 264 262 257 261 271 279 282 284 287 290 294 298 299 300 300 301
263 266 264 254 245 240 238 239 243 250 255 255 253 255 258 252 244 241 239 237 239 241 243 245 243 238 236 236 238 241 245 246 246 251 261 259 257 262 260 252 246 243 241 239 235 232 231 234 237 239 242 246 251 256 261 263 265 266 267 268 268 268 267 268 270 271 269 267 265 264 263 261 263 270 277 283 287 291 295 298 300 300 299 299 302
266 269 264 251 242 240 243 245 246 249 252 251 247 247 252 251 241 237 241 239 236 240 241 240 238 234 231 232 236 240 246 248 249 253 257 255 256 260 255 251 251 251 250 247 243 238 235 236 239 242 244 247 250 253 256 259 260 260 262 265 265 266 268 271 272 271 269 269 271 273 274 273 274 277 281 285 289 292 294 294 294 295 295 297 300
259 255 249 245 240 240 244 244 240 244 244 227 219 228 235 238 243 248 249 242 238 240 240 239 240 238 232 232 238 245 254 259 253 248 250 254 256 256 253 248 248 251 256 256 251 244 239 239 241 243 246 248 249 249 250 252 254 254 255 258 260 262 266 269 271 271 271 274 277 279 280 281 282 283 284 287 288 290 291 290 289 290 292 295 297
246 241 241 244 243 241 244 243 242 247 246 231 228 238 240 236 242 247 242 238 237 237 238 242 245 242 235 237 248 256 259 258 248 240 245 251 251 252 253 248 244 246 253 255 251 246 243 244 245 247 249 249 249 248 249 250 252 254 256 258 258 259 262 264 268 271 274 278 281 283 284 286 287 288 288 290 291 292 292 291 289 289 290 292 295
239 240 243 246 245 242 241 241 242 244 243 239 240 245 246 243 241 238 232 229 229 227 229 233 235 236 237 242 252 259 257 249 239 237 244 248 245 247 252 251 247 249 252 252 250 248 247 248 249 252 254 253 251 248 247 248 250 253 256 257 257 257 258 259 263 268 272 276 279 282 284 287 289 290 291 292 292 292 292 291 289 288 289 291 292
235 241 246 250 249 248 247 246 245 244 242 242 242 243 244 245 244 243 241 237 234 232 229 228 227 230 234 234 234 238 242 243 242 241 240 239 239 248 259 260 253 248 247 248 249 248 249 251 252 255 257 257 255 251 248 248 249 251 253 254 256 257 258 260 263 267 270 273 275 278 281 284 287 288 289 290 290 290 291 290 289 287 287 289 291
244 247 253 258 256 255 258 257 253 251 249 248 248 248 248 248 248 250 252 252 251 249 244 238 233 230 229 227 223 225 231 236 241 241 239 244 251 257 261 259 250 242 239 241 245 246 248 251 253 255 256 256 257 256 254 253 253 254 254 256 258 261 262 264 267 271 273 275 275 276 278 282 284 285 286 288 289 289 289 288 287 287 288 290 292
259 259 259 259 259 262 267 267 263 259 258 255 254 255 255 254 253 252 253 255 257 257 255 253 248 242 238 234 231 231 232 233 237 240 243 249 255 254 250 247 247 243 236 233 239 245 248 251 254 255 255 255 256 256 257 258 258 258 258 258 261 263 265 267 269 272 274 274 275 277 278 281 283 284 286 288 289 290 289 287 285 286 288 291 293
260 257 248 240 245 252 256 262 267 267 264 260 258 259 259 259 257 254 253 256 259 260 259 258 256 253 250 248 246 245 245 245 247 246 246 248 248 247 246 245 246 245 236 234 244 254 256 257 258 258 258 257 257 258 259 259 259 259 259 259 261 262 264 266 268 270 272 275 275 276 278 280 282 283 284 286 288 290 291 289 287 286 288 291 292
244 246 239 233 236 237 235 240 251 258 261 262 263 266 266 264 262 260 260 262 263 263 262 260 260 259 257 256 257 257 258 259 259 256 253 252 252 252 252 252 251 249 247 249 257 261 261 262 262 262 261 260 259 259 260 260 260 260 259 260 260 261 263 266 267 268 270 274 275 274 274 278 280 280 281 284 287 289 290 290 288 286 287 289 289
238 243 244 241 239 237 236 238 240 242 247 253 259 263 264 263 263 264 265 266 267 266 266 265 264 262 261 260 260 260 260 261 261 260 258 256 256 255 256 256 256 254 255 257 259 259 259 260 260 261 261 261 261 260 260 261 262 262 261 260 259 259 261 262 263 265 267 270 272 273 274 276 277 277 278 281 283 285 287 287 286 285 286 287 286
247 248 249 247 243 240 238 239 240 241 243 246 249 252 255 257 261 263 264 266 267 268 270 269 268 267 266 264 262 261 260 260 260 259 258 258 257 257 256 256 256 256 257 259 258 257 257 258 259 260 261 262 262 261 260 260 261 261 261 261 260 259 259 260 262 264 266 266 268 269 271 273 274 274 276 279 281 283 284 285 284 283 283 284 283
251 251 251 249 246 242 239 239 242 243 244 244 245 247 249 253 258 260 261 264 267 269 271 272 272 271 269 268 267 265 264 263 262 262 261 260 260 259 258 257 257 258 258 257 256 255 256 256 258 260 261 261 262 261 260 259 258 258 258 259 259 258 259 260 262 264 264 264 267 270 271 272 274 275 277 280 282 283 284 283 282 283 283 283 282
253 253 252 250 248 246 244 244 245 247 248 248 247 248 250 253 255 257 260 263 267 270 272 273 273 272 271 269 268 268 267 266 266 265 264 263 263 262 260 259 258 258 258 257 256 256 256 256 257 258 259 259 260 260 261 261 260 260 259 259 259 259 260 262 263 264 265 266 270 274 276 277 279 280 281 282 282 283 283 283 283 284 283 281 280
254 253 252 251 251 251 251 250 250 250 251 252 252 252 253 254 256 259 261 264 266 267 268 268 267 267 267 267 267 267 268 268 269 269 269 268 267 267 265 263 262 260 260 259 258 257 257 258 258 259 260 261 261 262 263 263 264 265 264 264 263 264 264 265 265 265 268 271 274 276 277 279 281 282 283 282 281 281 281 282 284 283 280 275 273
250 249 251 253 255 256 256 256 255 254 254 254 255 255 256 258 259 261 263 264 264 262 259 258 258 259 260 261 262 264 266 267 268 269 269 269 269 268 268 267 267 266 265 264 263 262 261 261 262 262 263 264 265 264 265 265 266 267 268 268 267 267 268 268 269 270 273 275 276 277 277 277 279 280 281 280 279 279 279 281 282 280 276 272 270
249 250 252 256 258 259 259 260 260 260 259 259 259 259 260 261 261 261 261 262 262 260 258 257 258 261 262 263 263 264 265 265 264 264 264 265 266 266 267 267 267 267 268 268 269 269 269 269 269 268 268 267 266 265 265 265 267 269 270 271 271 271 271 271 272 273 274 275 276 276 277 277 277 278 278 277 277 277 278 278 276 274 271 270 268
251 253 255 256 258 260 261 261 262 262 263 263 262 262 262 262 262 263 262 262 262 262 262 262 262 264 266 267 268 268 268 267 266 266 266 266 267 268 268 268 269 269 269 269 269 270 271 272 272 272 272 271 269 267 267 267 267 269 270 271 272 272 272 272 272 273 273 274 275 277 278 277 277 278 277 276 275 275 276 274 270 267 266 265 264
251 253 255 256 257 259 260 261 261 261 262 263 263 263 263 263 264 265 265 265 265 265 266 266 267 267 268 268 269 269 269 269 269 269 269 269 269 269 269 270 270 270 271 271 270 270 271 271 271 271 272 271 271 270 268 268 268 268 269 270 271 272 272 272 273 273 273 274 275 275 275 275 276 276 275 273 272 272 271 268 264 261 260 260 260
253 254 255 257 258 259 260 261 261 262 262 263 264 264 264 265 266 267 268 268 268 268 269 269 269 269 269 270 270 270 270 270 270 270 270 270 270 270 271 271 271 272 272 272 272 272 272 272 272 271 271 271 271 270 270 269 269 268 269 269 270 271 272 272 272 273 273 273 273 273 274 275 276 275 274 273 272 270 266 262 260 260 260 260 262
258 259 260 260 261 261 262 262 262 262 262 263 264 265 266 267 268 269 270 270 270 271 271 272 272 272 272 272 272 272 272 273 273 273 273 272 272 272 272 272 272 272 272 272 273 273 272 272 272 272 271 271 271 271 271 270 270 269 269 269 270 270 271 271 272 272 272 272 272 274 276 277 276 275 274 273 271 268 264 262 260 260 260 262 265
259 260 261 261 260 260 261 262 262 262 262 263 264 266 268 269 270 270 271 271 271 272 272 273 273 273 274 274 275 276 277 277 278 278 277 277 276 275 275 274 274 274 274 273 273 273 273 273 272 272 272 271 271 271 270 270 270 269 269 269 269 269 270 270 270 270 269 268 269 272 276 277 276 273 271 269 266 264 264 262 260 260 261 261 262
257 258 259 259 258 258 258 259 260 260 261 263 265 266 268 269 270 270 271 271 272 272 272 273 274 275 276 277 278 279 280 281 281 281 280 280 279 279 278 278 277 277 276 276 275 275 275 274 274 273 273 272 272 271 270 270 269 269 269 269 269 269 269 269 268 267 266 265 265 263 263 267 270 270 269 270 269 266 264 261 260 260 258 253 251
259 259 260 260 260 260 260 261 262 262 263 265 266 267 268 269 270 271 271 272 272 272 272 273 274 275 277 278 280 281 282 282 281 281 281 281 280 280 280 279 279 279 279 278 278 278 277 277 277 276 276 275 274 273 271 271 270 269 269 268 268 267 267 267 266 265 264 264 263 259 253 254 261 266 270 272 271 267 263 260 258 255 251 248 250
260 261 261 262 262 263 264 264 265 265 266 267 268 269 270 270 271 272 272 272 273 273 274 274 275 277 278 279 280 281 281 281 281 281 281 281 281 281 281 280 280 280 280 280 280 279 278 278 278 278 278 277 276 274 273 272 271 271 269 268 267 266 265 264 263 263 262 261 261 258 252 250 254 260 264 265 263 259 255 252 250 249 250 253 256
Height
5781 5781 5782 5782 5781 5781 5781 5781 5782 5782 5781 5782 5785 5784 5783 5784 5785 5787 5788 5789 5790 5790 5789 5791 5791 5790 5791 5792 5792 5793 5793 5793 5794 5794 5795 5796 5797 5797 5798 5798 5798 5799 5799 5799 5799 5800 5800 5800 5800 5800 5799 5799 5799 5799 5799 5798 5798 5798 5798 5798 5798 5798 5798 5797 5798 5799 5799 5799 5800 5800 5801 5801 5801 5802 5802 5803 5804 5805 5805 5806 5806 5806 5805 5805 5806
5778 5779 5780 5779 5777 5777 5777 5777 5779 5780 5780 5781 5782 5781 5781 5781 5781 5783 5785 5786 5787 5787 5788 5788 5789 5789 5789 5790 5790 5791 5792 5792 5792 5793 5794 5795 5796 5796 5797 5797 5798 5798 5798 5798 5798 5799 5799 5799 5799 5799 5799 5799 5799 5798 5798 5798 5797 5797 5797 5797 5797 5797 5797 5796 5796 5798 5799 5799 5799 5800 5800 5800 5801 5802 5802 5802 5803 5804 5805 5805 5806 5806 5805 5805 5806
5776 5776 5776 5775 5774 5772 5773 5774 5776 5778 5779 5779 5777 5777 5778 5778 5779 5780 5782 5783 5784 5784 5785 5786 5787 5789 5789 5789 5789 5790 5790 5791 5791 5792 5793 5794 5794 5795 5796 5796 5796 5796 5796 5797 5797 5798 5798 5798 5798 5798 5798 5798 5798 5798 5797 5797 5796 5796 5796 5796 5796 5796 5796 5796 5795 5796 5798 5798 5799 5799 5800 5800 5801 5802 5802 5802 5803 5804 5805 5805 5805 5805 5804 5804 5805
5773 5773 5772 5772 5770 5769 5771 5774 5774 5774 5776 5776 5774 5774 5775 5776 5777 5778 5779 5780 5781 5782 5783 5784 5786 5788 5788 5788 5788 5788 5789 5789 5789 5790 5791 5793 5793 5794 5794 5794 5795 5795 5795 5795 5796 5797 5797 5797 5797 5797 5797 5797 5797 5796 5796 5796 5795 5795 5794 5794 5795 5795 5795 5795 5796 5796 5797 5798 5799 5799 5799 5800 5800 5801 5801 5802 5802 5803 5803 5804 5804 5804 5803 5804 5805
5770 5770 5769 5769 5768 5767 5770 5773 5772 5772 5774 5773 5771 5770 5772 5774 5775 5776 5778 5779 5779 5780 5782 5783 5785 5786 5786 5786 5786 5786 5787 5787 5788 5789 5790 5791 5792 5792 5793 5793 5793 5793 5793 5794 5794 5795 5795 5796 5796 5796 5796 5796 5795 5795 5795 5795 5794 5794 5793 5793 5793 5793 5793 5794 5795 5795 5796 5797 5798 5799 5799 5799 5799 5799 5800 5800 5801 5801 5802 5802 5803 5803 5803 5804 5804
5768 5767 5767 5767 5766 5765 5766 5768 5769 5770 5772 5771 5768 5768 5770 5772 5773 5774 5776 5777 5777 5779 5780 5782 5783 5784 5784 5783 5784 5784 5785 5786 5786 5787 5788 5789 5790 5791 5791 5791 5791 5791 5792 5792 5792 5793 5793 5794 5794 5794 5794 5795 5795 5794 5794 5794 5793 5793 5792 5792 5792 5792 5792 5792 5793 5793 5794 5795 5797 5798 5798 5797 5797 5797 5797 5798 5799 5799 5800 5800 5801 5802 5803 5803 5803
5765 5765 5765 5765 5765 5765 5765 5766 5767 5767 5769 5769 5767 5766 5767 5768 5770 5771 5773 5775 5776 5777 5778 5779 5780 5781 5781 5781 5781 5782 5783 5784 5785 5786 5787 5787 5788 5788 5789 5789 5789 5789 5790 5790 5791 5791 5791 5792 5792 5793 5793 5793 5793 5794 5794 5793 5793 5792 5791 5791 5791 5791 5791 5791 5791 5792 5792 5793 5794 5796 5796 5796 5796 5796 5796 5796 5797 5797 5798 5799 5800 5801 5801 5802 5802
5763 5763 5764 5764 5765 5765 5764 5764 5764 5764 5765 5765 5764 5764 5764 5765 5767 5769 5771 5772 5773 5774 5775 5776 5777 5778 5779 5779 5780 5781 5781 5782 5783 5784 5785 5785 5786 5787 5787 5788 5788 5788 5788 5788 5789 5789 5790 5790 5791 5791 5791 5792 5792 5792 5793 5793 5792 5792 5791 5790 5790 5789 5790 5790 5790 5791 5791 5791 5792 5793 5794 5795 5795 5795 5795 5796 5796 5796 5797 5797 5798 5799 5800 5800 5800
5761 5761 5762 5763 5763 5763 5761 5762 5763 5763 5764 5763 5762 5762 5763 5764 5765 5767 5768 5769 5770 5771 5772 5773 5774 5776 5776 5777 5778 5779 5780 5780 5781 5782 5783 5783 5784 5785 5786 5786 5786 5787 5787 5787 5787 5788 5788 5789 5789 5790 5790 5790 5791 5791 5792 5792 5791 5791 5790 5790 5789 5789 5788 5789 5789 5789 5789 5790 5790 5791 5792 5792 5793 5794 5794 5795 5795 5795 5795 5795 5796 5797 5798 5798 5798
5759 5760 5759 5758 5758 5759 5759 5760 5761 5762 5762 5762 5761 5760 5761 5762 5764 5765 5766 5767 5768 5768 5769 5771 5772 5773 5774 5775 5776 5777 5778 5778 5779 5780 5780 5781 5783 5784 5784 5784 5785 5785 5785 5785 5786 5786 5787 5788 5788 5789 5789 5789 5790 5790 5790 5790 5790 5790 5789 5789 5788 5788 5787 5787 5788 5788 5788 5788 5789 5790 5791 5791 5791 5792 5793 5793 5793 5794 5794 5794 5795 5796 5796 5796 5795
5758 5758 5756 5755 5755 5757 5758 5759 5759 5760 5761 5761 5761 5760 5760 5761 5761 5762 5763 5765 5765 5766 5767 5768 5769 5770 5772 5773 5774 5775 5776 5777 5777 5778 5778 5779 5781 5782 5783 5784 5784 5784 5784 5784 5784 5785 5786 5786 5787 5788 5788 5788 5788 5789 5788 5788 5788 5788 5788 5788 5788 5787 5787 5787 5786 5786 5787 5787 5788 5788 5789 5790 5790 5791 5791 5791 5791 5792 5792 5793 5794 5794 5794 5794 5793
5756 5756 5755 5755 5756 5756 5757 5757 5758 5758 5759 5759 5760 5759 5759 5759 5760 5760 5761 5762 5763 5763 5764 5766 5767 5768 5770 5771 5772 5773 5774 5775 5775 5776 5777 5777 5779 5780 5782 5782 5783 5783 5783 5783 5783 5784 5784 5785 5786 5787 5787 5787 5787 5787 5787 5787 5787 5787 5787 5786 5786 5786 5786 5786 5785 5785 5785 5786 5786 5787 5787 5788 5788 5789 5789 5789 5790 5790 5790 5791 5792 5792 5792 5791 5790
5755 5755 5754 5755 5756 5756 5756 5756 5757 5757 5757 5758 5758 5758 5758 5759 5760 5760 5760 5760 5761 5761 5763 5764 5765 5767 5769 5770 5771 5771 5772 5773 5774 5774 5775 5775 5777 5778 5779 5780 5781 5781 5782 5782 5782 5783 5783 5784 5784 5785 5785 5785 5785 5785 5785 5785 5785 5785 5785 5785 5785 5785 5785 5785 5784 5784 5784 5784 5785 5785 5785 5785 5786 5786 5787 5787 5788 5788 5789 5790 5790 5790 5789 5788 5788
5753 5753 5753 5754 5755 5755 5755 5755 5757 5757 5756 5757 5757 5757 5757 5758 5759 5760 5761 5760 5760 5761 5762 5763 5764 5766 5767 5768 5769 5770 5771 5771 5772 5772 5773 5773 5774 5775 5777 5778 5779 5780 5780 5781 5781 5782 5782 5782 5783 5783 5783 5783 5783 5783 5783 5783 5783 5783 5784 5784 5783 5783 5783 5783 5783 5783 5783 5783 5783 5783 5783 5784 5784 5785 5785 5785 5786 5787 5787 5788 5788 5787 5786 5786 5786
5751 5751 5752 5753 5755 5754 5754 5755 5755 5755 5755 5755 5755 5755 5756 5757 5758 5760 5761 5760 5760 5760 5761 5762 5763 5765 5766 5767 5768 5768 5769 5769 5770 5770 5770 5771 5772 5773 5774 5776 5777 5778 5778 5779 5779 5780 5780 5780 5781 5780 5780 5781 5781 5781 5781 5781 5781 5782 5782 5782 5782 5782 5782 5782 5782 5782 5781 5781 5781 5782 5782 5782 5783 5783 5783 5783 5784 5784 5785 5785 5785 5784 5783 5784 5784
5749 5749 5751 5752 5753 5753 5753 5753 5753 5753 5753 5753 5753 5753 5754 5756 5757 5759 5760 5760 5760 5760 5760 5761 5762 5763 5764 5765 5766 5766 5767 5767 5767 5768 5768 5769 5769 5770 5772 5773 5774 5775 5776 5777 5777 5778 5778 5778 5779 5778 5778 5779 5779 5779 5779 5779 5780 5780 5781 5781 5781 5781 5781 5781 5781 5781 5780 5780 5780 5781 5781 5781 5781 5781 5782 5782 5782 5783 5783 5783 5782 5782 5782 5782 5782
5747 5747 5748 5749 5749 5750 5751 5751 5751 5751 5751 5752 5752 5752 5752 5754 5757 5758 5759 5759 5759 5759 5760 5760 5761 5762 5762 5763 5764 5764 5764 5764 5764 5765 5766 5766 5767 5768 5769 5770 5772 5773 5774 5774 5775 5775 5776 5776 5777 5777 5777 5777 5777 5777 5777 5777 5778 5778 5779 5779 5779 5780 5780 5780 5780 5780 5780 5780 5779 5779 5779 5780 5780 5780 5780 5781 5781 5782 5781 5781 5780 5780 5781 5781 5780
5744 5745 5746 5746 5746 5747 5748 5748 5749 5750 5750 5751 5751 5751 5751 5753 5755 5757 5758 5759 5759 5759 5759 5759 5759 5759 5760 5760 5760 5760 5760 5761 5761 5762 5763 5764 5764 5765 5767 5768 5769 5770 5771 5772 5773 5773 5774 5774 5775 5775 5775 5775 5775 5775 5775 5776 5776 5776 5777 5777 5778 5778 5779 5779 5779 5779 5779 5779 5778 5778 5778 5778 5779 5779 5779 5779 5780 5780 5779 5779 5778 5779 5779 5779 5779
5741 5742 5743 5743 5743 5744 5745 5746 5748 5749 5750 5750 5751 5751 5751 5752 5753 5755 5757 5758 5758 5758 5758 5757 5757 5756 5756 5756 5757 5757 5758 5759 5760 5760 5761 5762 5763 5764 5765 5766 5767 5768 5769 5770 5770 5771 5772 5772 5773 5774 5774 5774 5774 5774 5774 5774 5774 5775 5775 5775 5775 5776 5777 5777 5777 5778 5778 5778 5777 5777 5777 5777 5777 5778 5778 5778 5777 5777 5777 5777 5777 5777 5777 5777 5777
5738 5739 5740 5740 5741 5741 5742 5744 5745 5747 5748 5749 5750 5751 5751 5752 5753 5754 5755 5756 5756 5756 5756 5755 5753 5752 5751 5752 5753 5755 5756 5757 5758 5759 5760 5760 5761 5762 5763 5764 5765 5766 5767 5768 5768 5769 5769 5770 5771 5772 5772 5772 5772 5772 5772 5773 5773 5773 5773 5773 5774 5774 5775 5775 5775 5776 5776 5776 5776 5776 5776 5776 5776 5777 5777 5776 5776 5775 5776 5776 5776 5776 5776 5776 5776
5736 5737 5737 5738 5738 5739 5740 5741 5743 5744 5746 5747 5748 5749 5750 5750 5751 5752 5753 5754 5753 5753 5753 5752 5751 5750 5750 5751 5753 5754 5755 5756 5757 5758 5758 5759 5760 5761 5762 5762 5763 5764 5765 5766 5766 5766 5767 5768 5768 5769 5770 5770 5770 5770 5770 5771 5771 5772 5772 5772 5772 5772 5772 5773 5773 5773 5774 5774 5774 5775 5775 5775 5775 5775 5775 5775 5774 5775 5775 5775 5775 5775 5775 5775 5775
5734 5734 5735 5735 5736 5737 5738 5739 5740 5741 5742 5744 5745 5746 5747 5747 5749 5749 5750 5750 5750 5750 5750 5751 5751 5752 5753 5754 5755 5756 5756 5756 5756 5757 5756 5756 5757 5758 5759 5759 5760 5761 5762 5763 5764 5764 5764 5765 5766 5767 5767 5768 5768 5768 5768 5769 5769 5770 5770 5770 5770 5770 5770 5771 5771 5771 5771 5772 5772 5773 5773 5773 5773 5773 5773 5772 5773 5773 5774 5774 5774 5774 5774 5774 5775
5731 5732 5732 5733 5733 5734 5736 5737 5738 5739 5740 5741 5742 5743 5743 5744 5745 5746 5747 5748 5748 5748 5748 5748 5749 5749 5750 5751 5753 5753 5753 5754 5754 5754 5753 5753 5754 5755 5756 5756 5757 5758 5759 5760 5761 5761 5762 5762 5763 5764 5765 5765 5765 5766 5766 5767 5767 5768 5768 5768 5768 5768 5769 5769 5769 5769 5770 5770 5770 5771 5771 5771 5770 5770 5770 5770 5771 5772 5772 5772 5772 5772 5772 5773 5773
5728 5729 5730 5731 5731 5732 5734 5735 5735 5736 5737 5738 5740 5740 5741 5742 5742 5743 5745 5745 5745 5745 5745 5746 5747 5747 5747 5747 5748 5749 5749 5750 5751 5752 5751 5751 5752 5752 5752 5753 5753 5754 5756 5757 5757 5758 5759 5759 5760 5761 5762 5762 5762 5763 5764 5764 5764 5765 5765 5766 5766 5766 5766 5767 5767 5767 5768 5768 5768 5769 5769 5768 5768 5768 5769 5769 5770 5770 5770 5771 5771 5771 5771 5771 5771
5725 5726 5728 5728 5729 5730 5731 5732 5732 5733 5734 5735 5737 5738 5739 5740 5740 5741 5742 5743 5743 5743 5743 5744 5745 5746 5746 5746 5746 5746 5747 5748 5748 5749 5749 5749 5749 5750 5750 5750 5751 5752 5752 5753 5754 5755 5755 5756 5757 5758 5759 5759 5760 5760 5761 5762 5762 5762 5763 5763 5764 5764 5764 5764 5765 5765 5765 5765 5766 5766 5766 5766 5766 5766 5767 5767 5768 5768 5768 5768 5768 5768 5769 5769 5769
5721 5723 5725 5726 5727 5728 5728 5729 5730 5730 5731 5733 5734 5735 5736 5737 5737 5738 5739 5740 5741 5741 5741 5742 5743 5743 5744 5743 5743 5744 5745 5745 5746 5746 5747 5747 5747 5747 5748 5748 5749 5749 5750 5751 5751 5751 5752 5753 5754 5755 5756 5756 5757 5758 5759 5759 5760 5760 5760 5761 5761 5762 5762 5762 5762 5762 5762 5763 5763 5763 5763 5764 5764 5764 5764 5765 5765 5765 5765 5765 5765 5765 5765 5765 5766
5718 5720 5722 5724 5724 5725 5726 5728 5728 5729 5730 5731 5732 5733 5733 5734 5735 5736 5737 5738 5738 5738 5739 5739 5739 5740 5741 5741 5741 5741 5742 5743 5744 5744 5745 5746 5745 5745 5746 5746 5747 5747 5748 5748 5748 5749 5749 5750 5751 5752 5753 5754 5754 5755 5756 5757 5757 5757 5758 5758 5758 5759 5760 5760 5760 5760 5760 5760 5760 5760 5761 5761 5761 5761 5761 5761 5761 5761 5761 5761 5761 5760 5761 5761 5761
5716 5718 5719 5720 5721 5723 5724 5725 5726 5727 5727 5728 5729 5730 5731 5732 5733 5734 5735 5735 5735 5736 5736 5737 5737 5738 5738 5739 5739 5740 5741 5742 5743 5743 5744 5744 5744 5744 5743 5744 5744 5745 5745 5745 5746 5746 5747 5748 5748 5749 5750 5750 5751 5752 5753 5754 5754 5755 5755 5756 5756 5756 5757 5758 5758 5758 5758 5758 5758 5758 5758 5758 5758 5758 5758 5758 5758 5758 5757 5757 5757 5757 5757 5757 5757
5714 5716 5717 5718 5719 5720 5721 5722 5724 5725 5725 5725 5726 5727 5728 5729 5730 5731 5732 5733 5733 5734 5735 5735 5735 5736 5737 5737 5738 5740 5740 5741 5741 5742 5742 5741 5741 5741 5741 5741 5741 5742 5742 5743 5743 5744 5744 5745 5746 5746 5747 5747 5748 5749 5749 5750 5751 5752 5753 5753 5753 5753 5754 5755 5755 5755 5755 5755 5755 5755 5755 5755 5755 5755 5754 5754 5754 5754 5754 5753 5753 5753 5753 5753 5752
5712 5713 5714 5715 5716 5717 5719 5720 5721 5722 5723 5723 5724 5725 5726 5727 5728 5729 5730 5731 5732 5733 5734 5734 5734 5734 5735 5736 5736 5737 5737 5737 5738 5738 5738 5738 5738 5738 5738 5738 5738 5739 5740 5740 5741 5741 5742 5743 5743 5744 5744 5744 5745 5745 5746 5747 5748 5749 5750 5750 5750 5751 5752 5752 5752 5752 5751 5751 5751 5751 5751 5751 5751 5751 5750 5750 5750 5750 5749 5749 5749 5749 5749 5749 5749
5708 5710 5711 5712 5713 5714 5716 5717 5718 5719 5720 5720 5721 5722 5723 5725 5725 5726 5728 5729 5730 5731 5731 5731 5732 5732 5732 5732 5733 5733 5733 5733 5734 5735 5735 5735 5735 5735 5735 5736 5736 5736 5737 5738 5738 5739 5739 5740 5741 5741 5741 5741 5741 5742 5743 5744 5744 5745 5746 5747 5747 5748 5749 5750 5749 5749 5749 5748 5748 5748 5748 5748 5747 5747 5747 5747 5746 5746 5745 5745 5745 5745 5746 5746 5745
5706 5707 5708 5709 5710 5711 5712 5713 5714 5715 5716 5717 5718 5719 5720 5721 5722 5723 5725 5725 5726 5727 5727 5727 5728 5728 5728 5729 5730 5730 5730 5730 5731 5733 5733 5733 5733 5733 5733 5733 5733 5733 5734 5735 5735 5736 5737 5737 5738 5738 5738 5738 5738 5739 5739 5740 5741 5742 5743 5743 5744 5745 5746 5746 5746 5746 5746 5745 5745 5745 5745 5745 5744 5744 5743 5743 5743 5742 5742 5741 5741 5741 5742 5742 5741
5704 5705 5706 5706 5707 5708 5709 5710 5711 5712 5713 5714 5715 5716 5717 5718 5718 5719 5720 5721 5721 5722 5722 5723 5724 5724 5725 5725 5726 5727 5727 5727 5728 5730 5731 5731 5731 5732 5732 5731 5730 5730 5731 5731 5732 5733 5734 5735 5735 5736 5736 5735 5736 5736 5736 5737 5737 5738 5739 5740 5741 5741 5742 5742 5742 5742 5742 5742 5741 5741 5741 5741 5740 5740 5740 5739 5738 5738 5738 5737 5737 5737 5737 5737 5736
5701 5702 5703 5704 5704 5705 5705 5706 5707 5708 5709 5710 5711 5712 5713 5714 5715 5715 5716 5717 5717 5718 5718 5719 5720 5721 5722 5722 5723 5724 5724 5725 5725 5727 5728 5728 5728 5729 5729 5728 5728 5727 5728 5728 5730 5731 5731 5732 5732 5733 5733 5733 5732 5732 5733 5733 5734 5734 5735 5736 5736 5737 5737 5738 5738 5737 5737 5736 5736 5736 5736 5736 5736 5735 5735 5734 5734 5734 5733 5733 5733 5732 5732 5731 5731
5697 5698 5700 5701 5701 5702 5702 5703 5703 5704 5704 5705 5707 5707 5708 5709 5710 5711 5712 5713 5714 5715 5715 5716 5717 5719 5719 5720 5721 5721 5722 5722 5723 5724 5724 5725 5725 5725 5725 5725 5725 5724 5724 5725 5727 5728 5728 5728 5729 5729 5729 5729 5729 5729 5729 5729 5730 5730 5731 5731 5732 5733 5733 5733 5733 5733 5732 5730 5730 5731 5730 5730 5730 5730 5730 5729 5729 5729 5729 5728 5728 5727 5727 5726 5725
5693 5694 5695 5697 5699 5699 5700 5701 5701 5701 5700 5701 5702 5703 5704 5705 5705 5706 5708 5709 5710 5711 5712 5713 5713 5714 5716 5716 5717 5717 5718 5718 5719 5720 5721 5721 5722 5722 5721 5721 5722 5721 5720 5722 5723 5724 5724 5724 5725 5725 5725 5725 5725 5725 5725 5725 5725 5726 5726 5727 5728 5728 5729 5729 5729 5729 5727 5725 5725 5725 5725 5725 5725 5725 5724 5724 5723 5723 5723 5723 5722 5722 5721 5720 5719
5690 5690 5692 5693 5695 5696 5697 5698 5698 5698 5698 5699 5699 5700 5700 5700 5701 5702 5703 5704 5705 5707 5708 5709 5709 5710 5711 5712 5712 5713 5714 5714 5715 5716 5716 5717 5717 5718 5717 5718 5718 5717 5717 5718 5719 5719 5720 5720 5720 5721 5721 5721 5721 5721 5720 5720 5720 5721 5721 5722 5723 5724 5724 5725 5725 5725 5723 5722 5720 5719 5719 5719 5719 5719 5718 5718 5718 5717 5717 5717 5716 5716 5716 5714 5713
5686 5687 5688 5689 5690 5691 5692 5693 5694 5695 5695 5696 5697 5697 5697 5697 5697 5698 5698 5699 5700 5701 5703 5703 5704 5705 5706 5707 5708 5709 5709 5710 5710 5711 5711 5712 5712 5713 5713 5713 5713 5713 5713 5714 5715 5715 5715 5715 5716 5716 5716 5716 5715 5715 5715 5715 5715 5715 5715 5715 5716 5718 5718 5719 5720 5719 5718 5717 5716 5714 5714 5714 5713 5713 5712 5712 5712 5711 5711 5711 5710 5710 5709 5708 5707
5682 5683 5683 5684 5685 5686 5687 5688 5689 5690 5691 5692 5693 5694 5694 5694 5694 5695 5695 5695 5696 5697 5698 5698 5699 5700 5700 5701 5702 5703 5703 5704 5704 5705 5705 5706 5706 5706 5706 5707 5707 5707 5708 5708 5709 5709 5710 5710 5710 5710 5710 5710 5709 5709 5709 5709 5709 5709 5709 5709 5709 5710 5711 5712 5713 5713 5712 5711 5710 5709 5709 5709 5708 5707 5707 5706 5705 5705 5705 5704 5703 5703 5703 5702 5701
5677 5677 5678 5679 5680 5681 5682 5683 5684 5685 5686 5688 5689 5690 5690 5690 5691 5691 5692 5692 5693 5693 5693 5694 5694 5694 5695 5695 5696 5696 5696 5697 5697 5698 5698 5698 5699 5699 5699 5700 5700 5700 5701 5701 5702 5702 5703 5703 5703 5703 5703 5703 5703 5702 5702 5702 5701 5701 5702 5702 5702 5703 5704 5704 5706 5706 5706 5705 5704 5703 5703 5702 5701 5700 5700 5699 5698 5698 5698 5697 5697 5697 5697 5695 5693
5672 5672 5672 5673 5674 5675 5677 5678 5679 5680 5681 5682 5684 5685 5685 5686 5687 5687 5688 5688 5689 5689 5689 5689 5690 5690 5690 5690 5690 5690 5690 5691 5691 5691 5691 5691 5691 5692 5692 5692 5693 5693 5694 5694 5695 5695 5695 5695 5695 5695 5695 5695 5695 5695 5695 5694 5694 5694 5694 5695 5695 5696 5697 5697 5699 5700 5700 5700 5698 5697 5696 5695 5694 5693 5692 5692 5691 5691 5691 5691 5691 5690 5689 5688 5686
5666 5666 5667 5668 5668 5670 5672 5673 5673 5674 5675 5677 5678 5680 5681 5682 5682 5683 5683 5684 5684 5685 5685 5685 5685 5685 5685 5685 5685 5685 5685 5686 5686 5686 5686 5685 5685 5685 5685 5685 5685 5686 5686 5687 5687 5688 5689 5690 5689 5689 5689 5689 5689 5689 5689 5688 5688 5687 5687 5688 5689 5690 5690 5690 5691 5692 5693 5693 5691 5690 5689 5689 5687 5686 5685 5684 5684 5684 5684 5685 5685 5683 5680 5679 5679
5660 5661 5662 5663 5663 5665 5666 5667 5668 5669 5670 5671 5673 5674 5675 5676 5677 5677 5678 5678 5679 5679 5679 5680 5680 5680 5680 5680 5680 5680 5680 5680 5680 5680 5680 5680 5680 5680 5679 5679 5679 5679 5679 5679 5680 5680 5681 5682 5682 5682 5682 5683 5683 5683 5683 5683 5682 5682 5681 5681 5682 5682 5682 5682 5683 5684 5684 5683 5682 5681 5681 5680 5679 5678 5677 5677 5677 5677 5677 5678 5678 5676 5672 5672 5672
5655 5656 5657 5658 5659 5660 5661 5663 5663 5664 5665 5666 5667 5668 5669 5669 5670 5671 5671 5672 5672 5673 5673 5674 5674 5674 5674 5674 5674 5674 5674 5674 5673 5673 5673 5673 5673 5673 5672 5672 5672 5672 5672 5672 5673 5673 5673 5673 5674 5674 5674 5674 5675 5676 5676 5676 5675 5674 5673 5673 5673 5672 5671 5671 5673 5674 5674 5673 5673 5672 5671 5670 5670 5669 5669 5669 5670 5671 5670 5669 5669 5668 5666 5666 5666
5651 5652 5653 5654 5655 5656 5657 5657 5658 5659 5659 5660 5660 5661 5662 5662 5663 5663 5664 5665 5665 5666 5666 5666 5667 5667 5667 5667 5667 5667 5667 5667 5666 5666 5666 5666 5666 5665 5665 5665 5665 5664 5665 5665 5665 5665 5665 5665 5666 5666 5666 5666 5666 5666 5667 5667 5666 5665 5665 5664 5663 5662 5661 5661 5662 5664 5664 5663 5663 5662 5661 5661 5661 5660 5660 5660 5661 5663 5664 5663 5662 5661 5659 5659 5659
5646 5647 5649 5650 5651 5651 5651 5652 5653 5654 5654 5654 5655 5655 5656 5656 5657 5657 5658 5658 5658 5659 5659 5659 5660 5660 5660 5660 5660 5660 5660 5659 5659 5659 5659 5658 5658 5658 5658 5657 5657 5656 5656 5656 5656 5656 5656 5656 5656 5657 5657 5657 5656 5656 5656 5656 5656 5655 5655 5654 5653 5653 5651 5651 5652 5654 5654 5653 5653 5653 5653 5653 5653 5651 5651 5651 5652 5654 5655 5655 5655 5654 5653 5652 5652
5641 5643 5644 5645 5645 5645 5646 5646 5647 5648 5649 5649 5650 5650 5650 5651 5651 5651 5651 5651 5652 5652 5652 5652 5652 5652 5652 5652 5652 5652 5652 5652 5652 5651 5651 5650 5650 5650 5650 5649 5648 5648 5648 5647 5647 5647 5647 5646 5646 5646 5647 5647 5647 5646 5645 5644 5644 5644 5643 5643 5643 5642 5641 5641 5642 5643 5644 5644 5643 5644 5644 5645 5644 5642 5641 5641 5643 5644 5645 5645 5645 5646 5645 5645 5645
5636 5638 5639 5640 5639 5639 5640 5640 5641 5642 5642 5643 5643 5644 5644 5645 5645 5644 5645 5645 5645 5645 5645 5644 5644 5644 5644 5644 5644 5644 5643 5643 5643 5642 5642 5641 5640 5640 5640 5640 5639 5638 5638 5637 5637 5637 5636 5636 5636 5636 5636 5637 5637 5636 5634 5632 5632 5632 5632 5631 5631 5631 5630 5630 5631 5632 5633 5635 5636 5638 5637 5636 5634 5634 5633 5632 5634 5635 5635 5636 5636 5637 5637 5638 5638
5632 5633 5634 5634 5634 5634 5635 5635 5635 5636 5636 5637 5637 5638 5638 5638 5638 5638 5638 5638 5638 5638 5638 5637 5637 5637 5637 5636 5636 5635 5635 5634 5634 5633 5632 5631 5630 5630 5630 5629 5628 5627 5627 5627 5626 5626 5625 5624 5624 5624 5624 5625 5626 5625 5622 5620 5620 5620 5620 5620 5620 5619 5619 5618 5619 5620 5623 5625 5628 5631 5632 5629 5626 5626 5625 5625 5625 5627 5627 5627 5628 5629 5630 5631 5630
5626 5627 5628 5627 5627 5628 5629 5629 5629 5629 5630 5630 5631 5631 5631 5631 5631 5631 5631 5631 5631 5630 5630 5630 5630 5630 5629 5629 5628 5627 5627 5626 5625 5624 5623 5621 5620 5620 5619 5619 5617 5616 5615 5615 5615 5614 5613 5612 5611 5611 5611 5612 5613 5612 5609 5607 5607 5608 5608 5608 5608 5608 5607 5607 5607 5609 5612 5614 5617 5621 5624 5622 5620 5620 5620 5618 5618 5619 5620 5620 5621 5623 5623 5623 5623
5620 5621 5620 5620 5620 5622 5622 5621 5621 5622 5623 5623 5623 5623 5624 5624 5624 5623 5623 5623 5623 5623 5622 5622 5622 5622 5621 5621 5620 5619 5619 5618 5617 5616 5615 5613 5611 5609 5608 5608 5607 5606 5604 5603 5603 5603 5603 5602 5601 5600 5599 5599 5600 5600 5598 5596 5594 5595 5596 5596 5597 5597 5596 5596 5597 5598 5600 5604 5607 5610 5613 5614 5613 5615 5616 5612 5610 5612 5613 5613 5614 5616 5616 5617 5617